Showing default

COSMOS 2587, 63290

Orbit data source: Space-Track

COSMOS 2587, 63290 is a payload satellite owned by VVKO VKS (CIS) in LEO that was launched on Sun, 16 Mar 2025 UTC via an ANGARA-1.2 launch vehicle from the Plesetsk Missile And Space Complex (PKMTR). Payload-class satellites include a variety of spacecraft equipped with specific instruments for various scientific and technological missions. These include communications satellites like Starlink; space stations such as the ISS; scientific satellites like the Hubble; Earth observation satellites from companies like Planet Labs, Umbra, and HawkEye 360; GPS; miniature CubeSats for education and research; and military/defense satellites.

Loading next visibility...
Identifier
63290, 2025-054C
Orbit
LEO
Country
Flag of CISCIS
Related business
Manufacturer
Resehetnev ISS
Mission
Operational Defense Communications
Bus & Motor
STRELA-3M, Unknown motor
Mass
280 kg wet, 280 kg dry
Launch date (UTC)
2025-03-16 (1 year ago)
Launch vehicle
ANGARA-1.2
Launch site
Plesetsk Missile And Space Complex (PKMTR)
Object type
Payload
Rocket body
Debris
Shape & HBR
Cyl + 1 Ant, 3.5 m
Radar Cross Section
1.583 m², Large (>1 m²)

Expand to show TLE details & history
Last TLE update: 9 hours ago

TLE from 9 hours ago
0 COSMOS 2587
1 63290U 25054C   26257.84003422  .00000029  00000-0  14059-3 0  9994
2 63290  82.5016  22.9214 0015265 173.4708 186.6573 12.42895848 67991
Epoch: 2026-09-14T20:09Z
TLE epoch observation values (Epoch: 2026-09-14T20:09:38.956Z)
Latitude
-0.00006°
Longitude
86.69451°
Altitude
1,508.99 km
Speed
7.105 km/s
True Right ascension
01h 31m 41s
True Declination
0° 00' 00"
Sunlit
Object was in full shadow at epoch
Visualization orbit readout
Latitude
Unknown
Longitude
Unknown
Altitude
Unknown
Speed
Unknown
Apparent Right ascension
Unknown
Apparent Declination
Unknown
Sunlit
N/A
Visualization observer readout
Local Sidereal Time
21:24:05
Azimuth
Unknown
Elevation
Unknown
Doppler factor
Unknown
Orbital elements
Apogee altitude
1,503.716 km
Perigee altitude
1,479.689 km
Semi-major axis
7,869.839 km
Eccentricity
0.00153
Inclination
82.5016°
RAAN
22.9214°
Arg. of periapsis
173.4708°
True anomaly
186.63706°
Mean anomaly
186.6573°
Eccentric anomaly
186.64718°
Mean motion
3.10881 °/min
Orbital period
115.8 mins
BSTAR
0.00014059
Loading maneuver chart data...
Computing Atmospheric mass density...
Loading historical data...
Loading historical data...
Loading historical data...
Loading historical data...
Loading historical data...
Loading historical data...
Loading historical data...
Other satellites on launch #54 in the year 2025 (2025-03-16 UTC)

Documentation

Showing up to 5 results
|